N7NKE Weather Reports


time (UTC)temp
C
wind
direction
speed
KPH
gust
KPH
rain 1hr
cm
rain 24hr
cm
rain mn
cm
humidity
%
barometer
mb
20260502215005 19 25 4.8 12.9 0.00 0.00 0.00 66 1013.1
20260502214505 19 3 4.8 9.7 0.00 0.00 0.00 65 1013.2
20260502213005 19 355 3.2 9.7 0.00 0.00 0.00 66 1013.3
20260502212505 18 5 3.2 8.0 0.00 0.00 0.00 67 1013.4
20260502212005 18 6 6.4 14.5 0.00 0.00 0.00 66 1013.4
20260502211506 18 41 8.0 14.5 0.00 0.00 0.00 66 1013.6
20260502211005 18 114 4.8 11.3 0.00 0.00 0.00 67 1013.7
20260502205505 18 14 3.2 4.8 0.00 0.00 0.00 68 1013.8
20260502205005 17 359 3.2 3.2 0.00 0.00 0.00 68 1014.0
20260502204005 17 221 4.8 8.0 0.00 0.00 0.00 69 1014.1
20260502203505 17 339 3.2 11.3 0.00 0.00 0.00 69 1014.2
20260502203005 17 107 3.2 11.3 0.00 0.00 0.00 69 1014.2
20260502202505 17 21 3.2 8.0 0.00 0.00 0.00 70 1014.4
20260502202005 16 77 4.8 9.7 0.00 0.00 0.00 74 1014.3
20260502201505 16 344 3.2 4.8 0.00 0.00 0.00 73 1014.5
20260502200505 16 46 3.2 9.7 0.00 0.00 0.00 74 1014.6
20260502200005 15 341 3.2 8.0 0.00 0.00 0.00 75 1014.7
20260502195005 14 75 6.4 11.3 0.00 0.00 0.00 81 1015.0
20260502194005 13 0 4.8 9.7 0.00 0.00 0.00 82 1015.2
20260502193505 13 0 4.8 9.7 0.00 0.00 0.00 82 1015.4
20260502193005 13 333 4.8 9.7 0.00 0.00 0.00 81 1014.9
20260502192505 13 14 4.8 8.0 0.00 0.00 0.00 80 1015.3
20260502192005 13 25 1.6 8.0 0.00 0.00 0.00 80 1015.2
20260502191505 14 25 3.2 9.7 0.00 0.00 0.00 78 1015.0
20260502191005 14 0 4.8 8.0 0.00 0.00 0.00 78 1015.1
20260502190504 15 30 4.8 12.9 0.00 0.00 0.00 76 1015.5
20260502190006 15 23 6.4 16.1 0.00 0.00 0.00 76 1015.6
20260502185505 15 68 4.8 9.7 0.00 0.00 0.00 77 1015.7
20260502185005 15 357 3.2 9.7 0.00 0.00 0.00 74 1015.6
20260502184505 15 342 3.2 8.0 0.00 0.00 0.00 74 1015.6
20260502183505 15 13 4.8 12.9 0.00 0.00 0.00 72 1015.5
20260502183005 15 13 3.2 8.0 0.00 0.00 0.00 73 1015.6
20260502182505 15 345 3.2 8.0 0.00 0.00 0.00 74 1015.6
20260502182005 15 25 1.6 4.8 0.00 0.00 0.00 72 1015.5
20260502181505 15 324 1.6 4.8 0.00 0.00 0.00 74 1015.7
20260502181005 14 95 3.2 8.0 0.00 0.00 0.00 75 1015.8
20260502170505 12 73 1.6 3.2 0.00 0.00 0.00 81 1016.1
20260502163504 12 6 3.2 8.0 0.00 0.00 0.00 79 1016.3
20260502163005 12 351 1.6 3.2 0.00 0.00 0.00 79 1016.4
20260502162505 12 349 1.6 4.8 0.00 0.00 0.00 78 1016.4
20260502162005 12 356 1.6 3.2 0.00 0.00 0.00 79 1016.5
20260502161505 12 0 3.2 8.0 0.00 0.00 0.00 79 1016.4
20260502161005 12 296 4.8 8.0 0.00 0.00 0.00 79 1016.4
20260502152005 10 0 3.2 9.7 0.00 0.00 0.00 82 1016.2
20260502151505 10 0 3.2 19.3 0.00 0.00 0.00 82 1016.1
20260502151005 10 326 4.8 16.1 0.00 0.00 0.00 82 1015.7
20260502130505 9 329 1.6 3.2 0.00 0.00 0.00 84 1016.2
20260502123505 9 335 1.6 4.8 0.00 0.00 0.00 83 1016.3
20260502123005 9 276 1.6 4.8 0.00 0.00 0.00 84 1016.2
20260502122505 9 315 4.8 12.9 0.00 0.00 0.00 84 1016.2
20260502122005 9 325 3.2 9.7 0.00 0.00 0.00 84 1016.2
20260502121005 9 321 6.4 9.7 0.00 0.00 0.00 84 1016.3
20260502115504 9 330 6.4 12.9 0.00 0.00 0.00 85 1016.1
20260502115005 9 345 8.0 9.7 0.00 0.00 0.00 85 1016.2
20260502114005 9 0 4.8 8.0 0.00 0.00 0.00 85 1016.4
20260502113504 8 0 4.8 8.0 0.00 0.00 0.00 85 1016.5
20260502113005 8 0 3.2 3.2 0.00 0.00 0.00 85 1016.4
20260502112505 9 0 3.2 8.0 0.00 0.00 0.00 85 1016.3
20260502111505 9 0 4.8 4.8 0.00 0.00 0.00 83 1016.1
20260502111005 9 0 3.2 8.0 0.00 0.00 0.00 83 1016.0
20260502110504 9 0 4.8 9.7 0.00 0.00 0.00 83 1015.9
20260502110005 9 0 3.2 4.8 0.00 0.00 0.00 82 1015.8
20260502105504 9 24 3.2 3.2 0.00 0.00 0.00 82 1015.8
20260502105005 9 22 1.6 3.2 0.00 0.00 0.00 82 1016.0
20260502104505 9 85 1.6 3.2 0.00 0.00 0.00 82 1016.1
20260502104005 9 53 1.6 3.2 0.00 0.00 0.00 81 1015.9
20260502103504 9 357 0.0 3.2 0.00 0.00 0.00 81 1015.9
20260502103005 9 348 3.2 3.2 0.00 0.00 0.00 81 1015.9
20260502102505 9 285 0.0 3.2 0.00 0.00 0.00 81 1015.9
20260502102004 9 342 1.6 9.7 0.00 0.00 0.00 82 1015.9
20260502101505 9 348 0.0 3.2 0.00 0.00 0.00 82 1015.9
20260502101004 10 353 1.6 3.2 0.00 0.00 0.00 82 1016.0
20260502100505 10 325 0.0 3.2 0.00 0.00 0.00 82 1016.2
20260502091505 10 327 3.2 4.8 0.00 0.00 0.00 80 1017.0
20260502090505 10 351 3.2 3.2 0.00 0.00 0.00 79 1017.0
20260502071505 12 332 4.8 12.9 0.00 0.00 0.00 70 1016.9
20260502070505 12 343 8.0 12.9 0.00 0.00 0.00 70 1016.8
20260502070005 12 349 8.0 12.9 0.00 0.00 0.00 71 1016.8
20260502065504 12 332 9.7 14.5 0.00 0.00 0.00 72 1016.8
20260502065004 12 332 6.4 9.7 0.00 0.00 0.00 72 1016.9
20260502064505 12 340 8.0 12.9 0.00 0.00 0.00 72 1016.9
20260502064004 12 336 8.0 12.9 0.00 0.00 0.00 72 1016.9
20260502063505 12 321 8.0 12.9 0.00 0.00 0.00 72 1016.9
20260502062504 12 331 4.8 9.7 0.00 0.00 0.00 71 1016.9
20260502062004 12 320 4.8 8.0 0.00 0.00 0.00 70 1016.9
20260502061505 12 291 3.2 8.0 0.00 0.00 0.00 70 1016.9
20260502061005 12 346 3.2 8.0 0.00 0.00 0.00 70 1016.7
20260502060005 12 333 3.2 8.0 0.00 0.00 0.00 69 1016.7
20260502055504 12 13 3.2 4.8 0.00 0.00 0.00 68 1016.7
20260502055005 12 338 3.2 8.0 0.00 0.00 0.00 67 1016.5
20260502054504 13 330 3.2 8.0 0.00 0.00 0.00 66 1016.5
20260502053505 13 0 3.2 8.0 0.00 0.00 0.00 64 1016.5
20260502053005 13 355 3.2 8.0 0.00 0.00 0.00 63 1016.5
20260502051505 13 31 1.6 3.2 0.00 0.00 0.00 61 1016.4
20260502051004 14 31 3.2 8.0 0.00 0.00 0.00 61 1016.3
20260502045504 14 72 0.0 3.2 0.00 0.00 0.00 60 1016.2
20260502044504 15 20 1.6 4.8 0.00 0.00 0.00 59 1016.0
20260502044005 15 34 1.6 3.2 0.00 0.00 0.00 59 1015.9
20260502043504 15 16 1.6 4.8 0.00 0.00 0.00 58 1015.8
20260502043004 15 305 6.4 12.9 0.00 0.00 0.00 58 1015.8
20260502042504 15 352 4.8 8.0 0.00 0.00 0.00 58 1015.7
20260502041504 15 350 3.2 12.9 0.00 0.00 0.00 57 1015.6
20260502041004 15 334 4.8 12.9 0.00 0.00 0.00 56 1015.5
20260502040504 15 322 8.0 14.5 0.00 0.00 0.00 56 1015.4
20260502035504 15 324 8.0 12.9 0.00 0.00 0.00 55 1015.4
20260502035004 15 322 4.8 20.9 0.00 0.00 0.00 55 1015.3
20260502034504 16 330 8.0 12.9 0.00 0.00 0.00 54 1015.3
20260502034004 16 322 8.0 11.3 0.00 0.00 0.00 54 1015.3
20260502033504 16 327 11.3 20.9 0.00 0.00 0.00 54 1015.2
20260502033006 16 332 9.7 19.3 0.00 0.00 0.00 54 1015.1
20260502032505 16 335 9.7 16.1 0.00 0.00 0.00 54 1015.1
20260502032005 16 338 6.4 14.5 0.00 0.00 0.00 54 1015.0
20260502031504 16 346 9.7 22.5 0.00 0.00 0.00 54 1015.0
20260502031005 16 336 11.3 16.1 0.00 0.00 0.00 54 1014.9
20260502024505 17 328 12.9 19.3 0.00 0.00 0.00 55 1014.6
20260502024004 17 337 14.5 19.3 0.00 0.00 0.00 55 1014.6
20260502023504 17 326 12.9 19.3 0.00 0.00 0.00 56 1014.5
20260502023005 17 336 11.3 19.3 0.00 0.00 0.00 57 1014.4
20260502022004 18 333 9.7 16.1 0.00 0.00 0.00 60 1014.2
20260502021505 18 333 9.7 14.5 0.00 0.00 0.00 59 1014.1
20260502021004 18 339 9.7 14.5 0.00 0.00 0.00 59 1014.1
20260502020504 18 333 12.9 19.3 0.00 0.00 0.00 58 1014.2
20260502020005 18 340 11.3 19.3 0.00 0.00 0.00 57 1014.1
20260502015004 19 334 9.7 22.5 0.00 0.00 0.00 58 1014.2
20260502014505 19 336 9.7 20.9 0.00 0.00 0.00 58 1014.1
20260502013004 20 329 11.3 20.9 0.00 0.00 0.00 57 1014.1
20260502012504 20 336 9.7 14.5 0.00 0.00 0.00 57 1014.1
20260502012004 20 338 8.0 14.5 0.00 0.00 0.00 56 1014.1
20260502011505 20 341 9.7 19.3 0.00 0.00 0.00 56 1014.1
20260502011005 20 330 11.3 16.1 0.00 0.00 0.00 56 1014.1
20260502010505 20 334 11.3 19.3 0.00 0.00 0.00 56 1014.1
20260502010004 21 336 11.3 20.9 0.00 0.00 0.00 54 1014.1
20260502005505 21 331 11.3 19.3 0.00 0.00 0.00 54 1014.1
20260502005004 21 344 8.0 19.3 0.00 0.00 0.00 55 1014.0
20260502004504 21 327 11.3 16.1 0.00 0.00 0.00 53 1014.0
20260502004005 21 331 9.7 19.3 0.00 0.00 0.00 53 1014.0
20260502003505 21 334 8.0 14.5 0.00 0.00 0.00 54 1014.0
20260502002505 21 335 8.0 16.1 0.00 0.00 0.00 55 1014.0
20260502002004 22 335 8.0 19.3 0.00 0.00 0.00 53 1013.9
20260502001505 22 328 9.7 16.1 0.00 0.00 0.00 54 1013.9
20260502001005 22 344 9.7 22.5 0.00 0.00 0.00 52 1013.8
20260502000504 22 351 8.0 14.5 0.00 0.00 0.00 52 1013.8
20260502000004 23 341 8.0 12.9 0.00 0.00 0.00 52 1013.7
20260501235504 23 341 3.2 8.0 0.00 0.00 0.00 50 1013.7
20260501235005 23 351 4.8 9.7 0.00 0.00 0.00 49 1013.7
20260501234505 23 4 3.2 4.8 0.00 0.00 0.00 50 1013.7
20260501234004 23 1 3.2 4.8 0.00 0.00 0.00 51 1013.7
20260501233006 23 64 1.6 3.2 0.00 0.00 0.00 51 1013.7
20260501232504 23 6 3.2 4.8 0.00 0.00 0.00 52 1013.7
20260501231505 23 98 3.2 4.8 0.00 0.00 0.00 51 1013.8
20260501231004 23 71 3.2 8.0 0.00 0.00 0.00 51 1013.9
20260501230005 23 343 3.2 4.8 0.00 0.00 0.00 49 1014.1
20260501225504 23 11 3.2 4.8 0.00 0.00 0.00 51 1014.2
20260501224505 23 74 3.2 8.0 0.00 0.00 0.00 49 1014.3
20260501223004 23 81 3.2 4.8 0.00 0.00 0.00 46 1014.5
20260501222505 22 333 3.2 4.8 0.00 0.00 0.00 47 1014.6
20260501222004 23 3 3.2 4.8 0.00 0.00 0.00 48 1014.6
20260501221504 22 7 1.6 3.2 0.00 0.00 0.00 49 1014.6
20260501221005 22 63 4.8 8.0 0.00 0.00 0.00 52 1014.6
20260501220504 22 58 4.8 12.9 0.00 0.00 0.00 51 1014.7
20260501220004 22 86 1.6 4.8 0.00 0.00 0.00 50 1014.7
20260501215504 22 65 4.8 4.8 0.00 0.00 0.00 52 1014.8